OE3BCB-14 Weather Reports


time (UTC)temp
F
wind
direction
speed
knots
gust
knots
rain 1hr
in
rain 24hr
in
rain mn
in
humidity
%
barometer
mb
20260508024028 52 180 0.0 0.9 0.00 0.00 0.00 56 1018.5
20260508023526 52 180 0.0 0.9 0.00 0.00 0.00 56 1018.5
20260508023023 52 180 0.0 0.0 0.00 0.00 0.00 56 1018.5
20260508022521 52 180 0.0 0.0 0.00 0.00 0.00 55 1018.5
20260508022018 52 180 0.0 0.0 0.00 0.00 0.00 55 1018.5
20260508021517 52 135 0.0 0.0 0.00 0.00 0.00 55 1018.5
20260508021014 52 45 0.0 0.0 0.00 0.00 0.00 55 1018.5
20260508020511 52 45 0.0 0.0 0.00 0.00 0.00 55 1018.5
20260508020009 53 45 0.0 0.0 0.00 0.00 0.00 54 1018.5
20260508015506 53 180 0.0 0.0 0.00 0.00 0.00 54 1018.4
20260508015004 54 180 0.0 0.0 0.00 0.00 0.00 54 1018.4
20260508014502 55 225 0.0 0.9 0.00 0.00 0.00 54 1018.4
20260508013959 55 225 0.0 20.9 0.00 0.00 0.00 54 1018.4
20260508013457 55 180 0.0 0.9 0.00 0.00 0.00 54 1018.4
20260508012954 55 180 0.0 0.0 0.00 0.00 0.00 53 1018.4
20260508011949 56 180 0.0 0.9 0.00 0.00 0.00 53 1018.3
20260508011447 56 180 0.0 0.9 0.00 0.00 0.00 53 1018.2
20260508010442 57 180 0.0 0.9 0.00 0.00 0.00 53 1018.1
20260508005940 57 225 0.0 16.5 0.00 0.00 0.00 52 1018.1
20260508005437 57 180 0.9 8.7 0.00 0.00 0.00 52 1018.1
20260508004935 57 225 0.0 21.7 0.00 0.00 0.00 52 1018.1
20260508004433 57 225 0.9 1.7 0.00 0.00 0.00 52 1018.1
20260508003930 57 180 0.9 20.0 0.00 0.00 0.00 52 1018.1
20260508003428 57 180 0.0 17.4 0.00 0.00 0.00 52 1018.1
20260508002925 58 180 0.0 18.2 0.00 0.00 0.00 52 1018.2
20260508002423 58 225 0.9 9.6 0.00 0.00 0.00 51 1018.2
20260508001921 58 225 0.9 19.1 0.00 0.00 0.00 51 1018.2
20260508001418 58 225 0.9 7.8 0.00 0.00 0.00 51 1018.2
20260508000916 58 225 0.9 2.6 0.00 0.00 0.00 51 1018.1
20260508000413 58 225 0.9 21.7 0.00 0.00 0.00 51 1018.1
20260507235408 59 180 1.7 20.0 0.00 0.00 0.00 51 1018.2
20260507234906 59 225 0.9 19.1 0.00 0.00 0.00 50 1018.2
20260507234404 59 225 0.9 10.4 0.00 0.00 0.00 50 1018.2
20260507233359 59 225 2.6 23.5 0.00 0.00 0.00 50 1018.3
20260507232856 59 225 1.7 21.7 0.00 0.00 0.00 50 1018.3
20260507232354 59 180 0.9 22.6 0.00 0.00 0.00 50 1018.3
20260507231852 59 180 0.9 20.9 0.00 0.00 0.00 49 1018.3
20260507231349 60 225 1.7 18.2 0.00 0.00 0.00 49 1018.3
20260507230847 60 225 0.9 23.5 0.00 0.00 0.00 49 1018.4
20260507230344 60 180 1.7 20.0 0.00 0.00 0.00 49 1018.3
20260507225842 60 180 0.9 16.5 0.00 0.00 0.00 49 1018.4
20260507225340 60 225 2.6 20.9 0.00 0.00 0.00 48 1018.4
20260507224837 60 180 1.7 14.8 0.00 0.00 0.00 48 1018.3
20260507224335 60 180 0.0 12.2 0.00 0.00 0.00 48 1018.3
20260507223832 61 180 0.0 20.0 0.00 0.00 0.00 48 1018.3
20260507223330 61 180 1.7 17.4 0.00 0.00 0.00 48 1018.2
20260507222827 61 180 0.0 23.5 0.00 0.00 0.00 47 1018.1
20260507222325 61 180 0.9 39.1 0.00 0.00 0.00 47 1017.9
20260507221823 61 180 0.9 21.7 0.00 0.00 0.00 47 1017.9
20260507221320 61 180 19.1 19.1 0.00 0.00 0.00 47 1017.8
20260507220818 61 180 0.0 15.6 0.00 0.00 0.00 47 1017.9
20260507220315 61 225 0.0 20.0 0.00 0.00 0.00 46 1017.8
20260507215813 62 180 0.0 17.4 0.00 0.00 0.00 46 1017.8
20260507215311 62 180 0.9 19.1 0.00 0.00 0.00 46 1017.7
20260507214808 62 225 26.9 26.9 0.00 0.00 0.00 46 1017.7
20260507214306 62 180 15.6 15.6 0.00 0.00 0.00 45 1017.7
20260507213803 62 225 0.9 19.1 0.00 0.00 0.00 45 1017.7
20260507213301 62 225 0.0 2.6 0.00 0.00 0.00 45 1017.7
20260507212759 63 180 20.0 31.3 0.00 0.00 0.00 45 1017.7
20260507212256 63 180 0.9 18.2 0.00 0.00 0.00 44 1017.6
20260507211251 63 180 0.0 18.2 0.00 0.00 0.00 44 1017.6
20260507210749 63 180 0.0 19.1 0.00 0.00 0.00 44 1017.5
20260507210246 63 180 0.0 20.0 0.00 0.00 0.00 44 1017.5
20260507205744 64 180 19.1 19.1 0.00 0.00 0.00 44 1017.4
20260507205242 64 225 0.0 18.2 0.00 0.00 0.00 44 1017.4
20260507204739 64 180 0.0 1.7 0.00 0.00 0.00 44 1017.4
20260507204237 64 225 0.9 1.7 0.00 0.00 0.00 44 1017.3
20260507203734 64 225 0.0 19.1 0.00 0.00 0.00 43 1017.2
20260507203232 64 180 0.0 18.2 0.00 0.00 0.00 43 1017.1
20260507202730 64 180 0.0 0.9 0.00 0.00 0.00 43 1017.1
20260507202227 64 180 0.0 3.5 0.00 0.00 0.00 43 1017.0
20260507201725 64 180 0.9 20.0 0.00 0.00 0.00 43 1017.0
20260507201222 64 180 0.9 17.4 0.00 0.00 0.00 43 1016.9
20260507200720 64 225 0.0 16.5 0.00 0.00 0.00 43 1016.9
20260507200217 65 180 0.0 20.0 0.00 0.00 0.00 43 1016.9
20260507195715 65 180 0.9 1.7 0.00 0.00 0.00 43 1016.9
20260507195213 65 225 0.0 19.1 0.00 0.00 0.00 43 1016.8
20260507194710 65 225 0.0 18.2 0.00 0.00 0.00 43 1016.8
20260507194208 65 180 1.7 23.5 0.00 0.00 0.00 43 1016.7
20260507193705 64 225 0.9 5.2 0.00 0.00 0.00 43 1016.7
20260507193203 64 180 0.0 18.2 0.00 0.00 0.00 43 1016.7
20260507192701 64 180 0.0 0.0 0.00 0.00 0.00 43 1016.6
20260507192158 64 180 0.0 0.0 0.00 0.00 0.00 42 1016.6
20260507191656 64 225 0.0 0.9 0.00 0.00 0.00 42 1016.5
20260507191153 65 180 0.0 0.9 0.00 0.00 0.00 42 1016.5
20260507190651 65 225 0.0 14.8 0.00 0.00 0.00 42 1016.5
20260507190149 65 180 0.0 20.0 0.00 0.00 0.00 41 1016.4
20260507185646 65 180 0.0 19.1 0.00 0.00 0.00 41 1016.4
20260507185144 65 180 0.0 17.4 0.00 0.00 0.00 40 1016.3
20260507184641 65 225 16.5 20.0 0.00 0.00 0.00 39 1016.2
20260507184139 66 225 0.0 11.3 0.00 0.00 0.00 39 1016.1
20260507183134 66 180 0.9 4.3 0.00 0.00 0.00 39 1016.1
20260507182632 66 180 0.0 17.4 0.00 0.00 0.00 38 1016.0
20260507182129 66 180 0.9 2.6 0.00 0.00 0.00 38 1015.9
20260507181627 67 225 0.0 10.4 0.00 0.00 0.00 38 1015.9
20260507181124 67 225 0.0 15.6 0.00 0.00 0.00 38 1015.8
20260507180622 67 180 0.0 20.0 0.00 0.00 0.00 37 1015.8
20260507180120 67 225 0.0 18.2 0.00 0.00 0.00 37 1015.8
20260507175617 67 225 0.0 16.5 0.00 0.00 0.00 37 1015.7
20260507175115 67 180 0.0 7.8 0.00 0.00 0.00 37 1015.7
20260507174612 67 270 0.9 16.5 0.00 0.00 0.00 37 1015.6
20260507174110 68 180 0.0 20.9 0.00 0.00 0.00 37 1015.6
20260507173608 68 180 1.7 17.4 0.00 0.00 0.00 36 1015.5
20260507173105 68 180 1.7 20.9 0.00 0.00 0.00 36 1015.4
20260507172603 68 270 0.9 20.0 0.00 0.00 0.00 36 1015.4
20260507172100 68 225 2.6 13.9 0.00 0.00 0.00 35 1015.3
20260507171558 68 180 0.9 19.1 0.00 0.00 0.00 35 1015.2
20260507171056 69 180 0.9 7.0 0.00 0.00 0.00 35 1015.1
20260507170553 69 180 1.7 1.7 0.00 0.00 0.00 34 1015.0
20260507170051 69 180 0.9 38.2 0.00 0.00 0.00 34 1015.0
20260507165548 69 135 2.6 17.4 0.00 0.00 0.00 34 1014.9
20260507165046 70 180 16.5 17.4 0.00 0.00 0.00 34 1014.9
20260507164543 70 225 1.7 19.1 0.00 0.00 0.00 34 1014.8
20260507164041 70 180 0.0 19.1 0.00 0.00 0.00 33 1014.8
20260507163539 70 180 0.0 3.5 0.00 0.00 0.00 33 1014.8
20260507163036 70 180 0.9 18.2 0.00 0.00 0.00 33 1014.6
20260507162534 71 225 0.9 19.1 0.00 0.00 0.00 33 1014.6
20260507162031 71 180 0.9 16.5 0.00 0.00 0.00 32 1014.6
20260507161529 71 180 2.6 16.5 0.00 0.00 0.00 32 1014.6
20260507161027 72 180 3.5 21.7 0.00 0.00 0.00 32 1014.5
20260507160524 72 225 3.5 20.0 0.00 0.00 0.00 32 1014.5
20260507160022 73 225 0.9 21.7 0.00 0.00 0.00 32 1014.5
20260507155519 72 225 3.5 20.9 0.00 0.00 0.00 32 1014.4
20260507155017 72 180 6.1 26.9 0.00 0.00 0.00 31 1014.3
20260507154514 73 180 1.7 19.1 0.00 0.00 0.00 31 1014.5
20260507154012 73 180 1.7 27.8 0.00 0.00 0.00 31 1014.5
20260507153510 73 225 1.7 19.1 0.00 0.00 0.00 31 1014.5
20260507153007 73 225 0.9 18.2 0.00 0.00 0.00 31 1014.5
20260507152505 73 225 1.7 13.9 0.00 0.00 0.00 31 1014.3
20260507152002 73 180 0.9 18.2 0.00 0.00 0.00 30 1014.2
20260507151500 74 180 0.9 17.4 0.00 0.00 0.00 30 1014.1
20260507150455 74 225 1.7 6.1 0.00 0.00 0.00 30 1014.2
20260507145953 75 225 1.7 18.2 0.00 0.00 0.00 30 1014.1
20260507145450 75 180 0.9 19.1 0.00 0.00 0.00 30 1014.2
20260507144948 75 225 1.7 17.4 0.00 0.00 0.00 30 1014.1
20260507144446 75 180 1.7 17.4 0.00 0.00 0.00 30 1014.1
20260507143441 74 180 0.0 19.1 0.00 0.00 0.00 30 1014.2
20260507142938 74 180 1.7 20.0 0.00 0.00 0.00 29 1014.2
20260507142436 75 225 7.8 17.4 0.00 0.00 0.00 29 1014.1
20260507141933 75 225 20.0 20.0 0.00 0.00 0.00 29 1014.2
20260507141431 76 180 0.9 20.9 0.00 0.00 0.00 29 1014.1
20260507140929 78 225 0.0 9.6 0.00 0.00 0.00 28 1014.1
20260507135924 81 270 0.0 14.8 0.00 0.00 0.00 29 1014.0
20260507135421 78 225 0.0 17.4 0.00 0.00 0.00 28 1014.1
20260507134919 80 180 0.9 17.4 0.00 0.00 0.00 27 1014.0
20260507134417 79 225 0.0 20.0 0.00 0.00 0.00 29 1014.0
20260507133914 79 180 0.9 19.1 0.00 0.00 0.00 28 1014.0
20260507133412 81 180 2.6 19.1 0.00 0.00 0.00 28 1014.1
20260507132909 78 270 0.9 20.0 0.00 0.00 0.00 28 1014.0
20260507132407 79 225 0.9 18.2 0.00 0.00 0.00 29 1014.1
20260507131906 79 225 12.2 18.2 0.00 0.00 0.00 28 1014.2
20260507131402 80 315 0.0 17.4 0.00 0.00 0.00 28 1014.3
20260507130900 81 225 0.0 18.2 0.00 0.00 0.00 28 1014.3
20260507130357 87 225 8.7 14.8 0.00 0.00 0.00 26 1014.4
20260507125855 84 180 0.9 5.2 0.00 0.00 0.00 29 1014.3
20260507125352 81 180 1.7 20.0 0.00 0.00 0.00 28 1014.3
20260507124850 85 315 0.0 18.2 0.00 0.00 0.00 28 1014.3
20260507124348 88 270 1.7 13.0 0.00 0.00 0.00 27 1014.3
20260507123845 84 0 1.7 15.6 0.00 0.00 0.00 29 1014.4
20260507123343 78 225 0.9 19.1 0.00 0.00 0.00 30 1014.4
20260507122840 79 225 3.5 15.6 0.00 0.00 0.00 29 1014.4
20260507122338 81 0 0.0 7.0 0.00 0.00 0.00 29 1014.5
20260507121836 79 225 0.0 18.2 0.00 0.00 0.00 30 1014.5
20260507121333 80 270 0.9 19.1 0.00 0.00 0.00 32 1014.6
20260507120831 79 180 0.9 19.1 0.00 0.00 0.00 30 1014.5
20260507120328 82 270 0.9 13.9 0.00 0.00 0.00 29 1014.6
20260507115826 85 225 1.7 15.6 0.00 0.00 0.00 30 1014.6
20260507115323 85 225 0.0 22.6 0.00 0.00 0.00 31 1014.7
20260507114821 84 225 1.7 13.0 0.00 0.00 0.00 31 1014.7
20260507114319 83 225 1.7 14.8 0.00 0.00 0.00 31 1014.9
20260507113816 84 0 0.0 17.4 0.00 0.00 0.00 33 1014.8
20260507113314 84 180 1.7 17.4 0.00 0.00 0.00 32 1014.9
20260507112811 82 315 0.9 17.4 0.00 0.00 0.00 33 1014.9
20260507112309 80 225 2.6 10.4 0.00 0.00 0.00 33 1014.8
20260507111807 80 180 0.9 20.0 0.00 0.00 0.00 34 1015.0
20260507111304 76 225 2.6 5.2 0.00 0.00 0.00 34 1015.0
20260507110802 74 225 1.7 6.1 0.00 0.00 0.00 34 1015.1
20260507110259 74 180 6.1 18.2 0.00 0.00 0.00 34 1015.1
20260507105757 74 180 2.6 19.1 0.00 0.00 0.00 35 1015.1
20260507105255 74 225 10.4 20.0 0.00 0.00 0.00 35 1015.2
20260507104752 74 180 2.6 21.7 0.00 0.00 0.00 35 1015.2
20260507104250 74 225 3.5 17.4 0.00 0.00 0.00 35 1015.3
20260507103747 76 270 4.3 36.5 0.00 0.00 0.00 34 1015.4
20260507103245 77 270 1.7 17.4 0.00 0.00 0.00 35 1015.4
20260507102742 79 225 1.7 15.6 0.00 0.00 0.00 37 1015.5
20260507102240 74 180 0.9 20.0 0.00 0.00 0.00 37 1015.6
20260507101235 72 225 1.7 20.9 0.00 0.00 0.00 36 1015.5
20260507100733 72 225 7.8 19.1 0.00 0.00 0.00 37 1015.6
20260507100230 73 225 32.2 32.2 0.00 0.00 0.00 37 1015.6
20260507095728 73 270 1.7 21.7 0.00 0.00 0.00 36 1015.5
20260507095226 75 180 0.0 16.5 0.00 0.00 0.00 37 1015.4
20260507094723 74 315 0.9 18.2 0.00 0.00 0.00 37 1015.4
20260507094221 73 225 2.6 20.9 0.00 0.00 0.00 38 1015.5
20260507093718 73 225 2.6 23.5 0.00 0.00 0.00 38 1015.5
20260507093216 73 0 0.9 19.1 0.00 0.00 0.00 38 1015.5
20260507092714 73 225 0.0 22.6 0.00 0.00 0.00 38 1015.6
20260507092211 73 180 3.5 22.6 0.00 0.00 0.00 38 1015.4
20260507091709 74 180 20.9 20.9 0.00 0.00 0.00 39 1015.6
20260507091206 74 225 19.1 20.0 0.00 0.00 0.00 40 1015.6
20260507090704 71 315 0.9 20.0 0.00 0.00 0.00 40 1015.4
20260507090201 71 225 1.7 21.7 0.00 0.00 0.00 39 1015.4
20260507085659 72 225 1.7 21.7 0.00 0.00 0.00 40 1015.4
20260507085157 73 270 0.9 20.9 0.00 0.00 0.00 39 1015.3
20260507084654 74 225 0.9 14.8 0.00 0.00 0.00 42 1015.2
20260507084152 71 180 21.7 21.7 0.00 0.00 0.00 42 1015.1
20260507083650 71 180 1.7 20.0 0.00 0.00 0.00 41 1015.1
20260507083147 71 135 2.6 21.7 0.00 0.00 0.00 41 1015.1
20260507082645 72 180 0.9 20.0 0.00 0.00 0.00 43 1015.0
20260507082142 71 180 0.9 20.0 0.00 0.00 0.00 43 1015.0
20260507081640 70 225 0.9 18.2 0.00 0.00 0.00 43 1015.0
20260507081137 70 225 0.9 22.6 0.00 0.00 0.00 44 1015.0
20260507080635 69 225 3.5 25.2 0.00 0.00 0.00 44 1014.9
20260507080133 69 315 2.6 36.5 0.00 0.00 0.00 44 1015.0
20260507075630 68 270 1.7 23.5 0.00 0.00 0.00 44 1014.9
20260507075128 68 270 4.3 39.1 0.00 0.00 0.00 44 1014.8
20260507074625 68 225 1.7 20.9 0.00 0.00 0.00 45 1014.9
20260507074123 67 180 2.6 22.6 0.00 0.00 0.00 45 1015.0
20260507073620 67 225 4.3 22.6 0.00 0.00 0.00 45 1014.8
20260507073118 67 270 0.0 20.9 0.00 0.00 0.00 46 1014.9
20260507072616 67 225 1.7 20.0 0.00 0.00 0.00 46 1014.8
20260507072113 67 225 2.6 23.5 0.00 0.00 0.00 45 1014.7
20260507071611 67 270 1.7 39.1 0.00 0.00 0.00 46 1014.6
20260507071108 67 225 0.9 21.7 0.00 0.00 0.00 46 1014.7
20260507070606 67 180 2.6 22.6 0.00 0.00 0.00 46 1014.5
20260507070104 67 225 0.9 23.5 0.00 0.00 0.00 47 1014.5
20260507065601 67 180 4.3 26.1 0.00 0.00 0.00 46 1014.5
20260507065059 67 225 2.6 25.2 0.00 0.00 0.00 47 1014.6
20260507064556 67 180 20.0 20.9 0.00 0.00 0.00 48 1014.6
20260507064054 66 225 9.6 27.8 0.00 0.00 0.00 48 1014.6
20260507063552 65 225 4.3 36.5 0.00 0.00 0.00 48 1014.5
20260507063049 65 180 1.7 20.9 0.00 0.00 0.00 48 1014.5
20260507062547 65 180 0.9 20.0 0.00 0.00 0.00 49 1014.5
20260507062044 64 180 1.7 25.2 0.00 0.00 0.00 49 1014.3
20260507061542 64 225 1.7 22.6 0.00 0.00 0.00 49 1014.3
20260507061039 64 180 4.3 25.2 0.00 0.00 0.00 49 1014.2
20260507060537 63 225 0.9 20.9 0.00 0.00 0.00 49 1014.3
20260507060035 63 225 14.8 40.0 0.00 0.00 0.00 49 1014.3
20260507055532 63 180 1.7 15.6 0.00 0.00 0.00 49 1014.3
20260507055030 63 225 0.9 20.9 0.00 0.00 0.00 49 1014.2
20260507054527 63 180 0.9 9.6 0.00 0.00 0.00 49 1014.2
20260507054025 63 180 0.0 22.6 0.00 0.00 0.00 50 1014.1
20260507053523 63 180 1.7 20.0 0.00 0.00 0.00 50 1014.0
20260507053020 63 225 1.7 38.2 0.00 0.00 0.00 50 1013.9
20260507052518 63 180 0.9 23.5 0.00 0.00 0.00 50 1013.9
20260507052015 63 225 2.6 22.6 0.00 0.00 0.00 50 1013.8
20260507051513 63 225 14.8 21.7 0.00 0.00 0.00 50 1013.9
20260507051010 63 180 1.7 21.7 0.00 0.00 0.00 50 1013.9
20260507050508 63 225 0.9 19.1 0.00 0.00 0.00 50 1013.8
20260507050006 63 315 0.0 23.5 0.00 0.00 0.00 50 1013.8
20260507045503 63 180 0.0 0.9 0.00 0.00 0.00 50 1013.8
20260507045001 62 180 0.0 20.0 0.00 0.00 0.00 50 1013.8
20260507044458 62 315 0.0 20.9 0.00 0.00 0.00 50 1013.6
20260507043956 62 180 0.0 22.6 0.00 0.00 0.00 50 1013.6
20260507043454 62 225 0.9 20.0 0.00 0.00 0.00 50 1013.7
20260507042951 62 315 0.0 1.7 0.00 0.00 0.00 50 1013.6
20260507042449 62 180 0.0 9.6 0.00 0.00 0.00 50 1013.5
20260507041946 61 180 0.0 25.2 0.00 0.00 0.00 50 1013.5
20260507041444 61 180 0.0 20.0 0.00 0.00 0.00 50 1013.4
20260507040942 61 225 1.7 21.7 0.00 0.00 0.00 50 1013.3
20260507040439 61 225 0.9 19.1 0.00 0.00 0.00 50 1013.2
20260507035937 61 225 1.7 1.7 0.00 0.00 0.00 50 1013.1
20260507035434 61 180 0.0 1.7 0.00 0.00 0.00 50 1013.1
20260507034932 61 180 0.0 20.0 0.00 0.00 0.00 50 1013.1
20260507034429 61 180 5.2 20.0 0.00 0.00 0.00 50 1013.1
20260507033927 61 180 0.0 16.5 0.00 0.00 0.00 50 1013.0
20260507033425 61 180 0.0 22.6 0.00 0.00 0.00 50 1013.0
20260507032922 61 135 0.0 20.0 0.00 0.00 0.00 50 1012.9
20260507032420 61 225 0.9 28.7 0.00 0.00 0.00 50 1012.9
20260507031917 61 315 0.0 21.7 0.00 0.00 0.00 50 1012.8
20260507031415 62 225 0.9 20.9 0.00 0.00 0.00 50 1012.7
20260507030913 62 180 0.9 14.8 0.00 0.00 0.00 50 1012.7
20260507030410 62 180 0.9 24.3 0.00 0.00 0.00 50 1012.7
20260507025908 62 225 0.0 21.7 0.00 0.00 0.00 50 1012.6
20260507024903 62 180 0.0 25.2 0.00 0.00 0.00 50 1012.6
20260507024401 62 180 3.5 20.0 0.00 0.00 0.00 50 1012.5